Regional Weather Roundup
Issued by NWS

Home | Current Version | Previous Version | Text Only | Print | Product List | Glossary Off
Versions: 1 2 3 4 5 6 7 8 9 10 11 12 13 14 15 16 17 18 19 20 21 22 23 24 25 26 27 28 29 30 31 32 33 34 35 36 37 38 39 40 41 42 43 44 45 46 47 48 49 50

000
ASUS43 KDTX 110610
RWRMI
MICHIGAN HOURLY REGIONAL WEATHER ROUNDUP
NATIONAL WEATHER SERVICE DETROIT/PONTIAC MI
100 AM EST THU FEB 11 2016

NOTE: "FAIR" INDICATES FEW OR NO CLOUDS BELOW 12,000 FEET WITH NO
SIGNIFICANT WEATHER AND/OR OBSTRUCTION TO VISIBILITY.

MIZ047>049-052>055-059>063-066>070-074>076-081>083-110700-
SOUTHEAST LOWER MICHIGAN

CITY           SKY/WX    TMP DP  RH WIND       PRES   REMARKS
ADRIAN         CLEAR     12   3  67 NW5       30.06R WCI   4
6HR MIN TEMP:  12; 6HR MAX TEMP:  19; 6HR PCP: TRACE;

ALMA           MOCLDY    10   8  88 W3        30.05S
6HR MIN TEMP:   9; 6HR MAX TEMP:  15;

ANN ARBOR      PTCLDY    10   3  73 NW7       30.03R WCI  -1
BAD AXE        CLOUDY    11   2  67 NW16G24   29.97S WCI  -6
CARO           CLEAR      7  -2  66 NW9       30.00S WCI  -7
DETROIT CITY   CLOUDY    13   2  61 NW9G17    30.03R WCI   1
6HR MIN TEMP:  12; 6HR MAX TEMP:  18; 6HR PCP: TRACE;

DETROIT        CLOUDY    14   5  67 NW12G21   30.05R WCI   0
6HR MIN TEMP:  13; 6HR MAX TEMP:  19; 6HR PCP: TRACE;

FLINT          CLOUDY    11   0  61 NW8       30.03R WCI  -1
6HR MIN TEMP:  10; 6HR MAX TEMP:  17;

GROSSE ILE     MOCLDY    14   7  73 NW10      30.03S WCI   1
HILLSDALE      MOCLDY    11   3  70 NW9       30.02S WCI  -2
6HR MIN TEMP:  11; 6HR MAX TEMP:  17;

HOWELL         PTCLDY     8   3  80 W7        30.02R WCI  -3

CITY           SKY/WX    TMP DP  RH WIND       PRES   REMARKS
JACKSON        PTCLDY    10   3  73 NW8       30.04R WCI  -2
6HR MIN TEMP:  10; 6HR MAX TEMP:  16; 6HR PCP: TRACE;

LAMBERTVILLE   CLEAR     11   4  71 W6        30.07R WCI   2
6HR MIN TEMP:  11; 6HR MAX TEMP:  19;

LANSING        CLEAR     11   4  73 W7        30.05S WCI   0
6HR MIN TEMP:  10; 6HR MAX TEMP:  16; 6HR PCP: TRACE;

LAPEER         FAIR       6   0  76 NW5       30.00S WCI  -3
6HR MIN TEMP:   6; 6HR MAX TEMP:  14;

MASON          CLEAR      9   4  80 W5        30.04S WCI   0
MONROE         CLEAR     13   4  66 NW7       30.04S WCI   3
6HR MIN TEMP:  13; 6HR MAX TEMP:  21;

MT. CLEMENS    PTCLDY    11   1  62 NW13G21   30.00R WCI  -4
6HR MIN TEMP:  11; 6HR MAX TEMP:  16; 6HR PCP: TRACE;

PONTIAC        CLOUDY    10   0  63 NW13      29.99R WCI  -5
6HR MIN TEMP:   9; 6HR MAX TEMP:  14; 6HR PCP: TRACE;

PORT HOPE        N/A     14   5  67 NW21G32   29.94R WCI  -4
6HR MIN TEMP:  13; 6HR MAX TEMP:  15;

PORT HURON     CLEAR      9   0  66 W12       29.99R WCI  -6
TRI CITIES     PTCLDY     9  -1  64 W6        30.04S WCI  -1
6HR MIN TEMP:   8; 6HR MAX TEMP:  14;

MIDLAND        MOCLDY     3  -1  83 CALM      30.04S
6HR MIN TEMP:   2; 6HR MAX TEMP:  13;

TROY           CLOUDY    14   3  62 NW12G17   30.04R WCI   0
SAGINAW HB     CLEAR      7   1  78 W8        30.04S WCI  -6
$$
MIZ043>046-050>051-056>058-064>065-071>073-077>080-110700-
SOUTHWEST LOWER MICHIGAN

CITY           SKY/WX    TMP DP  RH WIND       PRES   REMARKS
BATTLE CREEK   CLOUDY    13   6  74 W7        30.06S WCI   3
6HR MIN TEMP:  10; 6HR MAX TEMP:  16;

BENTON HARBOR  LGT SNOW  18  13  80 W6        30.10F WCI  10
6HR MIN TEMP:  17; 6HR MAX TEMP:  19; 6HR PCP: TRACE;

BIG RAPIDS     CLEAR     10   6  87 W6        30.03R WCI   0
6HR MIN TEMP:   9; 6HR MAX TEMP:  14;

COLDWATER      CLOUDY    14   7  72 W5        30.06S WCI   6
6HR MIN TEMP:  13; 6HR MAX TEMP:  17;

FREMONT        CLOUDY    14   5  68 NW7       30.06F WCI   4
HOLLAND        FLURRIES  16   9  74 N3        30.09S
6HR MIN TEMP:  15; 6HR MAX TEMP:  16; 6HR PCP:  0.01;

GRAND RAPIDS   CLOUDY    15   9  76 NW8       30.07R WCI   4
6HR MIN TEMP:  14; 6HR MAX TEMP:  15; 6HR PCP: TRACE;

IONIA          CLOUDY    12   8  82 W6        30.05S WCI   3
6HR MIN TEMP:  12; 6HR MAX TEMP:  15;

KALAMAZOO      CLOUDY    14   6  70 W5        30.07S WCI   6
6HR MIN TEMP:  13; 6HR MAX TEMP:  16;

LUDINGTON      FLURRIES  15   6  67 NW10G16   30.09F WCI   2
6HR MIN TEMP:  15; 6HR MAX TEMP:  16;

MARSHALL       CLOUDY    13   7  76 W5        30.05S WCI   5
6HR MIN TEMP:   9; 6HR MAX TEMP:  16;

MOUNT PLEASANT CLOUDY    13   6  75 W6        30.03S WCI   4
MUSKEGON       FLURRIES  16   7  67 NW7       30.10R WCI   6
6HR MIN TEMP:  14; 6HR MAX TEMP:  17; 6HR PCP: TRACE;

SOUTH HAVEN    CLOUDY    15  12  85 SE5       30.09S WCI   8
$$
MIZ016>042-110700-
NORTHERN LOWER MICHIGAN

CITY           SKY/WX    TMP DP  RH WIND       PRES   REMARKS
ALPENA         CLOUDY     8   0  69 NW9       29.98R WCI  -5
6HR MIN TEMP:   8; 6HR MAX TEMP:  10; 6HR PCP:  0.03;

BEAVER ISLAND  FLURRIES  13   6  73 N7        30.02R WCI   2
6HR MIN TEMP:  12; 6HR MAX TEMP:  14;

BELLAIRE       CLOUDY    14   2  59 NW5       30.02S WCI   6
6HR MIN TEMP:  13; 6HR MAX TEMP:  14;

CADILLAC       CLEAR      7   2  82 W8        29.97R WCI  -6
CHARLEVOIX     CLOUDY    15   9  78 N10G24    30.03S WCI   2
FRANKFORT      CLOUDY    15   6  66 NW9G18    30.07S WCI   3
GAYLORD        CLOUDY     7   1  76 VRB6      29.93F WCI  -3
6HR MIN TEMP:   7; 6HR MAX TEMP:   8; 6HR PCP: TRACE;

GRAYLING       LGT SNOW  -3  -6  84 CALM      29.96F
6HR MIN TEMP:  -3; 6HR MAX TEMP:  11;

HARBOR SPRINGS CLOUDY     9   2  73 NE3       30.01S
HOUGHTON LAKE  PTCLDY     5   1  83 W7        29.97S WCI  -7
6HR MIN TEMP:   4; 6HR MAX TEMP:   9;

MANISTEE       CLOUDY    16   5  62 NW13G20   30.07F WCI   2
OSCODA         CLOUDY     7   0  75 NW7       29.98S WCI  -5
6HR MIN TEMP:   6; 6HR MAX TEMP:  10;

PELLSTON       PTCLDY     3  -1  83 N5        30.02R WCI  -6
6HR MIN TEMP:   3; 6HR MAX TEMP:  10;

ROGERS CITY    CLOUDY     8   1  75 N10G17    30.01S WCI  -7
TRAVERSE CITY  LGT SNOW  14   6  70 NW14      30.02S WCI  -1
6HR MIN TEMP:  14; 6HR MAX TEMP:  16; 6HR PCP: TRACE;

$$
MIZ007>008-015-110700-
EASTERN UPPER MICHIGAN

CITY           SKY/WX    TMP DP  RH WIND       PRES   REMARKS
KINROSS        CLOUDY     0  -8  71 NE7       30.01S WCI -13
6HR MIN TEMP:  -4; 6HR MAX TEMP:   9;

MACKINAC ISLAN MOCLDY     3  -4  73 N7        30.01S WCI -10
6HR MIN TEMP:   3; 6HR MAX TEMP:   9;

NEWBERRY       CLOUDY     8   3  80 N10G17    30.00S WCI  -6
6HR MIN TEMP:   8; 6HR MAX TEMP:   9;

S. S. MARIE    CLEAR     -3 -12  65 N9        30.02R WCI -19
6HR MIN TEMP:  -3; 6HR MAX TEMP:   6;

MUNISING         N/A     12   7  80 N17G26    30.06R WCI  -5
6HR MIN TEMP:  12; 6HR MAX TEMP:  14; 6HR PCP:  0.02;

$$
MIZ004>006-011>014-085-110700-
CENTRAL UPPER MICHIGAN

CITY           SKY/WX    TMP DP  RH WIND       PRES   REMARKS
MANISTIQUE     PTCLDY     6   2  85 W8        30.03S WCI  -7
6HR MIN TEMP:   5; 6HR MAX TEMP:  11;

ESCANABA       CLEAR      7  -2  66 NW10      30.09S WCI  -8
6HR MIN TEMP:   7; 6HR MAX TEMP:  10;

MENOMINEE      CLEAR      3  -6  66 CALM      30.13F
6HR MIN TEMP:   3; 6HR MAX TEMP:   9;

SAWYER-GWINN   LGT SNOW   6   2  84 NW12      30.03S WCI -10
6HR MIN TEMP:   4; 6HR MAX TEMP:   6;

$$
MIZ001>003-009>011-084-110700-
WESTERN UPPER MICHIGAN

CITY           SKY/WX    TMP DP  RH WIND       PRES   REMARKS
IRON MOUNTAIN  CLOUDY     7  -1  70 NW8       30.08R WCI  -6
6HR MIN TEMP:   7; 6HR MAX TEMP:   7; 6HR PCP: TRACE;

HOUGHTON       LGT SNOW   7   0  73 N12       30.10R WCI  -8
6HR MIN TEMP:   7; 6HR MAX TEMP:   9; 6HR PCP: TRACE;

COPPER HARBOR    N/A     12   6  77 NE21G28   30.12R WCI  -7
6HR MIN TEMP:  11; 6HR MAX TEMP:  14;

IRONWOOD       CLOUDY     7   0  72 SW6       30.12R WCI  -3
6HR MIN TEMP:   7; 6HR MAX TEMP:   9;

$$

ABBREVIATIONS USED IN REMARKS
   TC - TEMPERATURE IN CELSIUS
  WCI - WIND CHILL INDEX
   HX - HEAT INDEX
  VSB - VISIBILITY




USA.gov is the U.S. government's official web portal to all federal, state and local government web resources and services.